Weather observations for the past three days for
Weaverville
Imperial (Metric)
Date Time (pdt) Wind (mph) Vis. (mi.) Weather Sky Cond. Temperature (ºF) Relative Humidity Wind Chill (°F) Heat Index (°F) Pressure Precipitation (in)
Air Dwpt 6 hour altimeter (in) sea level (mb) 1 hr 3 hr 6 hr
Max. Min.
07 01:55 Calm 10.00 Fair CLR 51.8 44.6 77% 30.11 0.0
07 01:35 Calm 10.00 Fair CLR 51.8 44.6 77% 30.11 0.0
07 01:15 Calm 10.00 Fair CLR 53.6 44.6 72% 30.11 0.0
07 00:55 Calm 10.00 Fair CLR 53.6 44.6 72% 30.1 0.0
07 00:35 Calm 10.00 Fair CLR 53.6 44.6 72% 30.1 0.0
07 00:15 Calm 10.00 Fair CLR 53.6 44.6 72% 30.1 0.0
06 23:55 Calm 10.00 Fair CLR 55.4 46.4 72% 30.1 0.0
06 23:35 N 5 10.00 Fair CLR 57.2 46.4 67% 30.09 0.0
06 23:15 Calm 10.00 Fair CLR 57.2 46.4 67% 30.09 0.0
06 22:55 N 3 10.00 Fair CLR 59 46.4 63% 30.09 0.0
06 22:35 NE 5 10.00 Fair CLR 62.6 44.6 52% 30.09 0.0
06 22:15 S 6 10.00 Fair CLR 69.8 39.2 33% 30.08 0.0
06 21:55 Vrbl 6 10.00 Fair CLR 69.8 41 35% 30.08 0.0
06 21:35 Calm 10.00 Fair CLR 71.6 41 33% 30.07 0.0
06 21:15 Vrbl 6 10.00 Fair CLR 71.6 39.2 31% 30.06 0.0
06 20:55 S 6 10.00 Fair CLR 71.6 41 33% 30.05 0.0
06 20:35 Calm 10.00 Fair CLR 73.4 42.8 33% 30.05 0.0
06 20:15 S 6 10.00 Fair CLR 75.2 42.8 31% 77 30.04 0.0
06 19:55 S 6 10.00 Fair CLR 77 42.8 30% 78 30.04 0.0
06 19:35 Vrbl 7 G 14 10.00 Fair CLR 78.8 44.6 30% 79 30.03 0.0
06 19:15 Vrbl 5 G 15 10.00 Fair CLR 78.8 44.6 30% 79 30.03 0.0
06 18:55 S 9 10.00 Fair CLR 80.6 42.8 26% 79 30.03 0.0
06 18:35 Vrbl 7 G 14 10.00 Fair CLR 80.6 42.8 26% 79 30.03 0.0
06 18:15 Vrbl 7 G 17 10.00 Fair CLR 82.4 42.8 25% 80 30.03 0.0
06 17:55 SW 9 G 18 10.00 Fair CLR 82.4 42.8 25% 80 30.03 0.0
06 17:35 Vrbl 7 G 17 10.00 Fair CLR 82.4 44.6 26% 81 30.03 0.0
06 17:15 Vrbl 7 G 16 10.00 Fair CLR 82.4 44.6 26% 81 30.03 0.0
06 16:55 Vrbl 6 G 15 10.00 Fair CLR 84.2 46.4 27% 82 30.03 0.0
06 16:35 W 9 G 17 10.00 Fair CLR 84.2 44.6 25% 82 30.03 0.0
06 16:15 Vrbl 7 G 16 10.00 Fair CLR 84.2 44.6 25% 82 30.04 0.0
06 15:55 SW 10 10.00 Fair CLR 84.2 44.6 25% 82 30.04 0.0
06 15:35 Vrbl 7 G 13 10.00 Fair CLR 82.4 42.8 25% 80 30.05 0.0
06 15:15 Vrbl 7 G 14 10.00 Fair CLR 82.4 46.4 28% 81 30.06 0.0
06 14:55 SW 8 G 16 10.00 Fair CLR 82.4 50 32% 81 30.06 0.0
06 14:35 S 9 10.00 Fair CLR 80.6 51.8 37% 80 30.07 0.0
06 14:15 Vrbl 7 10.00 Fair CLR 78.8 50 37% 79 30.08 0.0
06 13:55 Vrbl 5 10.00 Fair CLR 77 51.8 42% 78 30.08 0.0
06 13:35 Calm 10.00 Fair CLR 75.2 53.6 47% 78 30.09 0.0
06 13:15 Calm 10.00 Fair CLR 73.4 53.6 50% 30.1 0.0
06 12:55 Calm 10.00 Fair CLR 71.6 53.6 53% 30.11 0.0
06 12:35 Calm 10.00 Fair CLR 68 51.8 56% 30.12 0.0
06 12:15 Vrbl 5 10.00 Fair CLR 68 51.8 56% 30.13 0.0
06 11:55 Calm 10.00 Fair CLR 64.4 51.8 64% 30.14 0.0
06 11:35 S 5 10.00 Fair CLR 64.4 51.8 64% 30.15 0.0
06 11:15 Calm 10.00 A Few Clouds FEW019 62.6 51.8 68% 30.15 0.0
06 10:55 W 5 10.00 Overcast OVC018 60.8 51.8 72% 30.16 0.0
06 10:35 SW 7 10.00 Overcast OVC017 60.8 51.8 72% 30.16 0.0
06 10:15 Calm 10.00 Overcast OVC016 59 50 72% 30.16 0.0
06 09:55 S 5 10.00 Overcast OVC015 59 50 72% 30.16 0.0
06 09:35 Calm 10.00 Overcast OVC015 57.2 50 77% 30.16 0.0
06 09:15 SW 5 10.00 Overcast OVC015 57.2 50 77% 30.16 0.0
06 08:55 Calm 10.00 Overcast OVC015 57.2 50 77% 30.16 0.0
06 08:35 Calm 10.00 Overcast OVC015 57.2 50 77% 30.16 0.0
06 08:15 Calm 10.00 Overcast OVC015 57.2 51.8 82% 30.16 0.0
06 07:55 Calm 10.00 Overcast OVC014 57.2 50 77% 30.16 0.0
06 07:35 Calm 10.00 Overcast OVC015 57.2 50 77% 30.15 0.0
06 07:15 Calm 10.00 Overcast OVC015 57.2 50 77% 30.15 0.0
06 06:55 Calm 10.00 Overcast OVC015 57.2 50 77% 30.14 0.0
06 06:35 Calm 10.00 Overcast OVC015 57.2 50 77% 30.13 0.0
06 06:15 Calm 10.00 Overcast OVC015 57.2 50 77% 30.12 0.0
06 05:55 Calm 10.00 Overcast OVC015 57.2 50 77% 30.12 0.0
06 05:35 Calm 10.00 Overcast OVC015 57.2 51.8 82% 30.12 0.0
06 05:15 Calm 10.00 Overcast OVC015 57.2 51.8 82% 30.11 0.0
06 04:55 Calm 10.00 Overcast OVC015 57.2 51.8 82% 30.11 0.0
06 04:35 Calm 10.00 Overcast OVC015 57.2 51.8 82% 30.11 0.0
06 04:15 Calm 10.00 Overcast OVC016 57.2 51.8 82% 30.1 0.0
06 03:55 Calm 10.00 Overcast OVC016 57.2 51.8 82% 30.1 0.0
06 03:35 Calm 10.00 Overcast OVC016 57.2 51.8 82% 30.1 0.0
06 03:15 Calm 10.00 Overcast OVC016 57.2 51.8 82% 30.1 0.0
06 02:55 Calm 10.00 Overcast OVC017 57.2 51.8 82% 30.09 0.0
06 02:35 Calm 10.00 Overcast OVC018 57.2 51.8 82% 30.09 0.0
06 02:15 Calm 10.00 Overcast OVC018 57.2 51.8 82% 30.09 0.0
06 01:55 Calm 10.00 Overcast OVC018 57.2 51.8 82% 30.09 0.0
06 01:35 Calm 10.00 Overcast OVC018 57.2 51.8 82% 30.09 0.0
06 01:15 Calm 10.00 Overcast OVC019 57.2 51.8 82% 30.09 0.0
06 00:55 Calm 10.00 Overcast OVC019 57.2 51.8 82% 30.09 0.0
06 00:35 Calm 10.00 Overcast OVC019 57.2 51.8 82% 30.08 0.0
06 00:15 Calm 10.00 Overcast OVC019 57.2 50 77% 30.08 0.0
05 23:55 Calm 10.00 Overcast OVC019 55.4 50 82% 30.07 0.0
05 23:35 Calm 10.00 Overcast OVC020 55.4 50 82% 30.07 0.0
05 23:15 Calm 10.00 Overcast OVC020 55.4 50 82% 30.06 0.0
05 22:55 Calm 10.00 Mostly Cloudy BKN018 55.4 50 82% 30.06 0.0
05 22:35 Calm 10.00 A Few Clouds FEW018 57.2 50 77% 30.05 0.0
05 22:15 Calm 10.00 Fair CLR 57.2 50 77% 30.04 0.0
05 21:55 Calm 10.00 Fair CLR 59 50 72% 30.02 0.0
05 21:35 Calm 10.00 Fair CLR 59 50 72% 30.01 0.0
05 21:15 Calm 10.00 Fair CLR 60.8 50 68% 29.99 0.0
05 20:55 Calm 10.00 Fair CLR 60.8 50 68% 29.98 0.0
05 20:35 Calm 10.00 Fair CLR 62.6 51.8 68% 29.96 0.0
05 20:15 NE 3 10.00 Fair CLR 66.2 51.8 60% 29.93 0.0
05 19:55 N 6 10.00 Fair CLR 69.8 50 50% 29.91 0.0
05 19:35 Vrbl 7 G 13 10.00 Fair CLR 73.4 46.4 38% 29.9 0.0
05 19:15 Vrbl 6 G 14 10.00 Fair CLR 75.2 46.4 36% 77 29.89 0.0
05 18:55 Vrbl 5 10.00 Fair CLR 75.2 44.6 34% 77 29.88 0.0
05 18:35 NW 8 10.00 Fair CLR 77 44.6 32% 78 29.88 0.0
05 18:15 Vrbl 3 G 12 10.00 Fair CLR 77 44.6 32% 78 29.87 0.0
05 17:55 Vrbl 3 G 14 10.00 Fair CLR 78.8 44.6 30% 79 29.87 0.0
05 17:35 Vrbl 6 G 14 10.00 Fair CLR 78.8 44.6 30% 79 29.87 0.0
05 17:15 W 8 G 15 10.00 Fair CLR 78.8 44.6 30% 79 29.87 0.0
05 16:55 Vrbl 7 10.00 Fair CLR 78.8 44.6 30% 79 29.87 0.0
05 16:35 SW 7 G 13 10.00 Fair CLR 78.8 44.6 30% 79 29.87 0.0
05 16:15 Vrbl 7 G 14 10.00 Fair CLR 78.8 41 26% 78 29.88 0.0
05 15:55 SW 7 G 14 10.00 Fair CLR 78.8 42.8 28% 78 29.88 0.0
05 15:35 W 9 10.00 Fair CLR 78.8 44.6 30% 79 29.89 0.0
05 15:15 SW 7 10.00 Fair CLR 77 46.4 34% 78 29.89 0.0
05 14:55 SW 7 10.00 Fair CLR 77 48.2 36% 78 29.9 0.0
05 14:35 SW 6 10.00 Fair CLR 75.2 48.2 39% 77 29.91 0.0
05 14:15 Calm 10.00 Fair CLR 73.4 50 44% 29.91 0.0
05 13:55 Vrbl 3 10.00 Fair CLR 71.6 50 47% 29.92 0.0
05 13:35 S 5 10.00 Fair CLR 71.6 50 47% 29.92 0.0
05 13:15 Calm 10.00 Fair CLR 69.8 48.2 46% 29.93 0.0
05 12:55 Calm 10.00 Fair CLR 68 48.2 49% 29.94 0.0
05 12:35 Calm 10.00 Fair CLR 66.2 48.2 52% 29.94 0.0
05 12:15 Calm 10.00 Fair CLR 66.2 48.2 52% 29.95 0.0
05 11:55 Vrbl 3 10.00 Fair CLR 64.4 48.2 56% 29.95 0.0
05 11:35 Calm 10.00 Fair CLR 62.6 48.2 60% 29.96 0.0
05 11:15 Calm 10.00 Partly Cloudy SCT028 62.6 48.2 60% 29.96 0.0
05 10:55 Calm 10.00 Mostly Cloudy BKN027 62.6 48.2 60% 29.96 0.0
05 10:35 SW 6 10.00 Partly Cloudy SCT027 60.8 48.2 63% 29.96 0.0
05 10:15 S 5 10.00 Mostly Cloudy BKN024 59 48.2 68% 29.96 0.0
05 09:55 Calm 10.00 Mostly Cloudy BKN025 60.8 48.2 63% 29.96 0.0
05 09:35 Calm 10.00 Overcast OVC028 57.2 48.2 72% 29.97 0.0
05 09:15 Calm 10.00 Overcast FEW013 FEW018 OVC028 55.4 48.2 77% 29.97 0.0
05 08:55 Calm 10.00 Overcast BKN013 BKN018 OVC027 53.6 48.2 82% 29.97 0.0
05 08:35 Calm 10.00 Overcast OVC012 53.6 48.2 82% 29.97 0.0
05 08:15 Calm 10.00 Overcast OVC011 53.6 48.2 82% 29.97 0.0
05 07:55 Calm 10.00 Overcast OVC010 53.6 48.2 82% 29.96 0.0
05 07:35 Calm 10.00 Overcast OVC011 53.6 48.2 82% 29.95 0.0
05 07:15 Calm 10.00 Overcast OVC012 53.6 48.2 82% 29.95 0.0
05 06:55 Calm 10.00 Overcast OVC011 51.8 48.2 88% 29.95 0.0
05 06:35 Calm 10.00 Overcast OVC011 51.8 48.2 88% 29.94 0.0
05 06:15 Calm 10.00 Overcast OVC012 51.8 48.2 88% 29.94 0.0
05 05:55 Calm 10.00 Overcast OVC012 53.6 48.2 82% 29.93 0.0
05 05:35 Calm 10.00 Overcast OVC013 53.6 48.2 82% 29.93 0.0
05 05:15 Calm 10.00 Overcast FEW008 OVC013 53.6 48.2 82% 29.93 0.0
05 04:55 Calm 9.00 Overcast OVC014 53.6 50 88% 29.93 0.0
05 04:35 Calm 7.00 Overcast OVC014 53.6 50 88% 29.93 0.0
05 04:15 Calm 9.00 Overcast OVC013 53.6 50 88% 29.93 0.0
05 03:55 Calm 10.00 Overcast OVC014 53.6 48.2 82% 29.93 0.0
05 03:35 Calm 10.00 Overcast OVC014 53.6 48.2 82% 29.92 0.0
05 03:15 Calm 10.00 Overcast OVC015 53.6 48.2 82% 29.92 0.0
05 02:55 Calm 10.00 Overcast OVC016 55.4 48.2 77% 29.92 0.0
05 02:35 Calm 10.00 Overcast OVC017 55.4 48.2 77% 29.92 0.0
05 02:15 Calm 10.00 Overcast BKN016 OVC021 55.4 48.2 77% 29.92 0.0
05 01:55 Calm 10.00 Overcast OVC021 55.4 48.2 77% 29.92 0.0
05 01:35 Calm 10.00 Overcast OVC021 55.4 48.2 77% 29.93 0.0
05 01:15 Calm 10.00 Overcast OVC022 55.4 50 82% 29.92 0.0
05 00:55 Calm 10.00 Overcast FEW017 OVC022 55.4 50 82% 29.92 0.0
05 00:35 Calm 8.00 Overcast OVC022 55.4 48.2 77% 29.92 0.0
05 00:15 Calm 10.00 Overcast OVC022 57.2 50 77% 29.92 0.0
04 23:55 S 5 10.00 Overcast OVC021 57.2 50 77% 29.92 0.0
04 23:35 S 5 10.00 Overcast OVC020 57.2 50 77% 29.93 0.0
04 23:15 Vrbl 5 10.00 Overcast OVC021 57.2 50 77% 29.92 0.0
04 22:55 Calm 10.00 Overcast OVC021 57.2 51.8 82% 29.92 0.0
04 22:35 Calm 10.00 Overcast BKN021 OVC027 59 51.8 77% 29.93 0.0
04 22:15 Calm 10.00 Overcast OVC026 59 51.8 77% 29.93 0.0
04 21:55 Calm 10.00 Overcast BKN026 OVC030 59 51.8 77% 29.92 0.0
04 21:35 S 6 10.00 Overcast OVC027 59 50 72% 29.91 0.0
04 21:15 S 7 10.00 Overcast OVC029 60.8 50 68% 29.91 0.0
04 20:55 Vrbl 3 10.00 Overcast OVC029 60.8 50 68% 29.89 0.0
04 20:35 SW 7 10.00 Overcast BKN024 OVC028 60.8 50 68% 29.88 0.0
04 20:15 Calm 10.00 Overcast BKN024 OVC029 60.8 51.8 72% 29.87 0.0
04 19:55 S 8 10.00 Overcast OVC030 60.8 51.8 72% 29.87 0.0
04 19:35 Vrbl 6 G 13 10.00 Mostly Cloudy BKN030 BKN034 62.6 51.8 68% 29.86 0.0
04 19:15 S 8 10.00 A Few Clouds FEW033 FEW100 62.6 51.8 68% 29.85 0.0
04 18:55 SW 8 10.00 A Few Clouds FEW100 62.6 51.8 68% 29.84 0.0
04 18:35 SW 12 10.00 A Few Clouds FEW100 FEW120 62.6 51.8 68% 29.85 0.0
04 18:15 SW 13 10.00 Fair CLR 64.4 51.8 64% 29.85 0.0
04 17:55 Vrbl 6 G 13 10.00 A Few Clouds FEW045 FEW090 FEW120 64.4 51.8 64% 29.87 0.0
04 17:35 SW 8 G 17 10.00 Mostly Cloudy BKN045 BKN095 64.4 51.8 64% 29.86 0.0
04 17:15 Vrbl 3 G 12 10.00 Mostly Cloudy FEW036 BKN045 BKN090 64.4 51.8 64% 29.86 0.0
04 16:55 SW 12 G 18 10.00 Partly Cloudy FEW038 SCT046 68 51.8 56% 29.86 0.0
04 16:35 S 9 G 16 10.00 Mostly Cloudy BKN040 68 51.8 56% 29.85 0.0
04 16:15 SW 9 G 24 10.00 Mostly Cloudy BKN041 68 51.8 56% 29.86 0.0
04 15:55 NW 12 G 17 10.00 Partly Cloudy SCT042 68 51.8 56% 29.87 0.0
04 15:35 SW 9 G 18 10.00 A Few Clouds FEW043 68 51.8 56% 29.87 0.0
04 15:15 W 9 G 18 10.00 A Few Clouds FEW044 68 51.8 56% 29.87 0.0
04 14:55 W 8 G 17 10.00 A Few Clouds FEW042 68 50 53% 29.89 0.0
04 14:35 W 9 G 16 10.00 Mostly Cloudy FEW033 BKN046 66.2 51.8 60% 29.89 0.0
04 14:15 Vrbl 6 G 14 10.00 Mostly Cloudy FEW032 BKN046 68 51.8 56% 29.9 0.0
04 13:55 SW 12 10.00 Partly Cloudy FEW030 SCT046 66.2 51.8 60% 29.91 0.0
04 13:35 SW 12 G 18 10.00 Partly Cloudy SCT046 66.2 51.8 60% 29.91 0.0
04 13:15 S 10 10.00 Fair CLR 66.2 51.8 60% 29.92 0.0
04 12:55 SW 8 10.00 Fair CLR 62.6 51.8 68% 29.93 0.0
04 12:35 S 12 G 17 10.00 A Few Clouds FEW025 64.4 51.8 64% 29.92 0.0
04 12:15 S 13 G 20 10.00 Fair CLR 62.6 51.8 68% 29.93 0.0
04 11:55 Vrbl 7 G 15 10.00 Mostly Cloudy SCT018 BKN029 62.6 51.8 68% 29.93 0.0
04 11:35 S 6 10.00 Overcast BKN016 OVC027 60.8 53.6 77% 29.94 0.0
04 11:15 SW 6 10.00 Overcast BKN016 BKN021 OVC028 59 53.6 82% 29.94 0.0
04 10:55 Vrbl 5 10.00 Overcast BKN016 OVC020 59 53.6 82% 29.94 0.0
04 10:35 S 3 10.00 Overcast BKN015 BKN020 OVC046 59 53.6 82% 29.94 0.0
04 10:15 Calm 10.00 Overcast SCT041 OVC046 57.2 51.8 82% 29.94 0.0
04 09:55 Calm 10.00 Overcast FEW013 FEW017 OVC037 57.2 51.8 82% 29.95 0.0
04 09:35 Calm 10.00 Overcast FEW008 SCT013 OVC034 57.2 51.8 82% 29.95 0.0
04 09:15 Calm 10.00 Overcast FEW017 BKN026 OVC034 57.2 53.6 88% 29.95 0.0
04 08:55 Calm 9.00 Overcast SCT006 SCT020 OVC025 55.4 53.6 94% 29.95 0.0
04 08:35 Calm 4.00 Fog/Mist SCT005 BKN014 OVC021 55.4 53.6 94% 29.94 0.0
04 08:15 Calm 7.00 Overcast BKN013 BKN018 OVC022 55.4 53.6 94% 29.94 0.0
04 07:55 Calm 6.00 Fog/Mist FEW006 BKN010 OVC014 55.4 53.6 94% 29.94 0.0
04 07:35 Calm 7.00 Overcast BKN007 OVC010 55.4 53.6 94% 29.93 0.0
04 07:15 Calm 5.00 Fog/Mist BKN006 OVC018 55.4 53.6 94% 29.93 0.0
04 06:55 Calm 9.00 Mostly Cloudy FEW015 SCT019 BKN029 55.4 53.6 94% 29.92 0.0
04 06:35 Calm 10.00 Overcast SCT008 BKN016 OVC029 55.4 53.6 94% 29.92 0.0
04 06:15 Calm 9.00 Overcast SCT005 BKN009 OVC016 55.4 53.6 94% 29.92 0.0
04 05:55 Calm 8.00 Overcast BKN004 BKN009 OVC031 55.4 53.6 94% 29.91 0.0
04 05:35 Calm 9.00 Overcast FEW010 BKN028 OVC032 55.4 53.6 94% 29.91 0.0
04 05:15 Calm 8.00 Overcast OVC026 55.4 53.6 94% 29.91 0.0
04 04:55 Calm 7.00 Overcast OVC025 55.4 53.6 94% 29.91 0.0
04 04:35 Calm 10.00 Overcast OVC025 55.4 53.6 94% 29.91 0.0
04 04:15 Calm 10.00 Overcast BKN017 OVC023 55.4 53.6 94% 29.91 0.0
04 03:55 Calm 8.00 Overcast FEW004 SCT007 OVC014 55.4 55.4 100% 29.91 0.0
04 03:35 Calm 8.00 Overcast BKN005 BKN010 OVC015 55.4 55.4 100% 29.91 0.0
04 03:15 Calm 9.00 Overcast OVC013 55.4 55.4 100% 29.92 0.0
04 02:55 Calm 9.00 Overcast OVC012 55.4 55.4 100% 29.92 0.0
04 02:35 Calm 9.00 Overcast FEW006 OVC012 55.4 55.4 100% 29.92 0.0
04 02:15 Calm 9.00 Overcast FEW004 BKN013 OVC021 55.4 55.4 100% 29.92 0.0
Date Time (pdt) Wind (mph) Vis. (mi.) Weather Sky Cond. Air Dwpt Max. Min. Relative Humidity Wind Chill (°F) Heat Index (°F) altimeter (in) sea level (mb) 1 hr 3 hr 6 hr
6 hour
Temperature (ºF) Pressure Precipitation (in)